Погода в Майдане

Россия / Республика Татарстан     55°27′10″N   48°47′48″E
темп.,
°C
ветер,
м/с
пор.,
м/с
влажн.,
%
обл.,
%
осадки,
мм/ч
давл.,
гПа
погр.,
м
16 октября, сб
сб1600:00+6зюз6136991 0.0 1019675
03:00+5зюз5117299 0.0 1020409
06:00+3юз511815 0.0 1021277
09:00+6юз610635 0.0 1021462
12:00+10юз794685 0.0 1020920
15:00+10юз684855 0.0 10191096
18:00+9ююз51151100 0.0 1019577
21:00+8ююз6124981 0.0 1019550
17 октября, вс
вс1700:00+6ююз51256100 0.0 1017342
03:00+6ююз5125871 0.0 1017321
06:00+5ююз5126279 0.0 1016309
09:00+8юз61157100 0.0 1016517
12:00+11юз695591 0.0 1016801
15:00+12юз695388 0.0 10141585
18:00+8ююз3667100 0.0 101585
21:00+6ююз377674 0.0 1014114
18 октября, пн
пн1800:00+8юз3775100 0.0 1014195
03:00+6юз238287 0.0 101365
06:00+6юз2387100 0.0 101233
09:00+8юз3673100 0.0 1012317
12:00+10юз575483 0.0 1010898
15:00+11юз575366 0.0 10091214
18:00+8юз396699 0.0 1009281
21:00+8юз41057100 0.0 1008380
19 октября, вт
вт1900:00+7зюз41065100 0.0 1008397
03:00+5з4879100 0.0 1008260
06:00+3зсз3688100 0.0 1009277
09:00+4зсз3472100 0.0 1010432
12:00+6з3558100 0.0 1010851
15:00+6з4560100 0.0 10101048
18:00+4зсз366790 0.1 1011279
21:00+2з37805 0.1 1012169
20 октября, ср
ср2000:000зсз229014 0.0 101229
03:000сз228587 0.0 101327
06:00+1сз2687100 0.0 1014476
09:00+2сз4675100 0.0 1016679
12:00+4сз5657100 0.2 10171313
15:00+4сз6758100 0.3 10181158
18:000зсз387021 0.1 1020210
21:00−1зсз23755 0.1 102144